Location: Unspecified
(41.5000°N, 0.0000°E)
Time: 16:30:47
(UTC+00:00)

deb Explorer IX - Pass Details

Date: 29 June 2019
Orbit: 539 x 1112 km, 38.8° (Epoch: 21 July)

Event Time Altitude Azimuth Distance (km) Brightness Sun altitude
Rises 14:17:53 0° 274° (W) 3,719 ? 56.6°
Reaches altitude 10° 14:20:29 10° 272° (W) 2,831 ? 56.1°
Maximum altitude 14:27:25 63° 193° (SSW) 1,206 ? 54.9°
Drops below altitude 10° 14:34:41 10° 114° (ESE) 2,967 ? 53.6°
Sets 14:37:28 0° 111° (ESE) 3,908 ? 53.1°
